Location: Unspecified
(58.9933°N, 5.6375°E)
Time: 22:15:14
(UTC+02:00)

Okean 3 - Visible Passes

Search period start: 30 August 2014 00:00
Search period end: 09 September 2014 00:00
Orbit: 583 x 610 km, 82.5° (Epoch: 30 August)

Date Brightness Start Highest point End Pass type
(mag) Time Alt. Az. Time Alt. Az. Time Alt. Az.
30 Aug 4.3 05:14:58 10° S 05:19:03 53° E 05:23:11 10° NNE visible
31 Aug 6.3 03:50:42 10° ESE 03:52:43 13° E 03:54:44 10° NE visible
31 Aug 3.7 05:25:11 10° S 05:29:22 75° E 05:33:36 10° NNE visible
01 Sep 6.0 03:59:58 10° SE 04:02:50 18° E 04:05:43 10° NE visible
01 Sep 3.4 05:35:32 10° SSW 05:39:44 79° WNW 05:43:59 10° NNE visible
02 Sep 5.6 04:09:36 10° SE 04:13:01 24° E 04:16:27 10° NNE visible
02 Sep 3.6 05:46:00 10° SSW 05:50:08 56° WNW 05:54:19 10° N visible
03 Sep 5.0 04:19:27 10° SSE 04:23:13 33° E 04:27:02 10° NNE visible
03 Sep 4.0 05:56:36 10° SW 06:00:35 41° WNW 06:04:37 10° N visible
04 Sep 4.4 04:29:27 10° SSE 04:33:28 46° E 04:37:32 10° NNE visible
05 Sep 6.2 03:05:42 10° E 03:07:12 12° ENE 03:08:42 10° ENE visible
05 Sep 3.8 04:40:07 13° S 04:43:46 65° E 04:47:59 10° NNE visible
06 Sep 6.0 03:14:43 10° ESE 03:17:18 16° E 03:19:54 10° NE visible
06 Sep 3.4 04:50:48 16° SSW 04:54:06 89° WNW 04:58:22 10° NNE visible
07 Sep 5.6 03:24:44 12° SE 03:27:27 22° E 03:30:42 10° NE visible
07 Sep 3.5 05:01:26 18° SSW 05:04:29 64° WNW 05:08:43 10° N visible
08 Sep 5.1 03:35:21 18° SE 03:37:38 29° E 03:41:19 10° NNE visible
08 Sep 3.9 05:12:04 18° SW 05:14:54 46° WNW 05:19:01 10° N visible
